Weather History for Eureka Airport, NV

Change the Weather History Date:

Saturday, March 15, 2014

  Actual Average Record
Temperature  
Mean Temperature 39 °F -  
Max Temperature 57 °F - - ()
Min Temperature 21 °F - - ()
Degree Days  
Heating Degree Days 26    
Moisture  
Dew Point 15 °F    
Average Humidity 49    
Maximum Humidity 93    
Minimum Humidity 11    
Precipitation  
Precipitation 0.00 in - - ()
Sea Level Pressure  
Sea Level Pressure 30.44 in    
Wind  
Wind Speed 5 mph (ENE)    
Max Wind Speed 14 mph    
Max Gust Speed 22 mph    
Visibility 10 miles    
Events      
T = Trace of Precipitation, MM = Missing Value Source: NWS Daily Summary

Daily Weather History Graph

Daily Weather History Graph

Search for Another Location

Airport:

Trip Planner

Search our weather history database for the weather conditions in past years. The results will help you decide how hot, cold, wet, or windy it might be!

Date:

Astronomy

Mar. 15, 2014 Rise Set
Actual Time 6:55 AM PDT 6:51 PM PDT
Civil Twilight 6:28 AM PDT 7:17 PM PDT
Nautical Twilight 5:57 AM PDT 7:49 PM PDT
Astronomical Twilight 5:25 AM PDT 8:20 PM PDT
Moon 6:14 PM PDT (3/15) 6:09 AM PDT (3/15)
Length of Visible Light 12h 49m
Length of Day
11h 55m
Waxing Gibbous, 99% of the Moon is Illuminated
Mar 15
Waxing Gibbous
Mar 16
Full
Mar 23
Last Quarter
Mar 30
New
Apr 7
First Quarter

Hourly Weather History & Observations

Time (PDT) Temp. Windchill Dew Point Humidity Pressure Visibility Wind Dir Wind Speed Gust Speed Precip Events Conditions
12:15 AM 28.4 °F 22.2 °F 24.8 °F 86% 30.34 in 10.0 mi South 5.8 mph - N/A   Clear
12:35 AM 28.4 °F 24.6 °F 23.0 °F 80% 30.34 in 10.0 mi South 3.5 mph - N/A   Clear
12:55 AM 26.6 °F 20.0 °F 23.0 °F 86% 30.34 in 10.0 mi SSE 5.8 mph - N/A   Clear
1:15 AM 26.6 °F 18.2 °F 23.0 °F 86% 30.34 in 10.0 mi SSW 8.1 mph - N/A   Clear
1:35 AM 26.6 °F 21.2 °F 23.0 °F 86% 30.35 in 10.0 mi South 4.6 mph - N/A   Clear
1:55 AM 26.6 °F 21.2 °F 23.0 °F 86% 30.36 in 10.0 mi ESE 4.6 mph - N/A   Clear
2:15 AM 26.6 °F 22.6 °F 23.0 °F 86% 30.36 in 10.0 mi ESE 3.5 mph - N/A   Scattered Clouds
2:35 AM 26.6 °F - 23.0 °F 86% 30.37 in 10.0 mi Calm Calm - N/A   Partly Cloudy
2:55 AM 23.0 °F 17.0 °F 19.4 °F 86% 30.37 in 10.0 mi West 4.6 mph - N/A   Clear
3:15 AM 23.0 °F - 19.4 °F 86% 30.36 in 10.0 mi Calm Calm - N/A   Clear
3:35 AM 24.8 °F 17.9 °F 23.0 °F 93% 30.35 in 10.0 mi SSW 5.8 mph - N/A   Clear
3:55 AM 24.8 °F 20.5 °F 23.0 °F 93% 30.36 in 10.0 mi SSE 3.5 mph - N/A   Clear
4:15 AM 23.0 °F 18.4 °F 19.4 °F 86% 30.37 in 10.0 mi ESE 3.5 mph - N/A   Clear
4:35 AM 23.0 °F 17.0 °F 19.4 °F 86% 30.38 in 10.0 mi South 4.6 mph - N/A   Clear
4:55 AM 24.8 °F 19.1 °F 21.2 °F 86% 30.39 in 10.0 mi SSW 4.6 mph - N/A   Clear
5:15 AM 23.0 °F 18.4 °F 17.6 °F 80% 30.39 in 10.0 mi SW 3.5 mph - N/A   Clear
5:35 AM 23.0 °F 14.7 °F 19.4 °F 86% 30.40 in 10.0 mi SW 6.9 mph - N/A   Clear
5:55 AM 23.0 °F - 19.4 °F 86% 30.40 in 10.0 mi Calm Calm - N/A   Clear
6:15 AM 23.0 °F - 17.6 °F 80% 30.41 in 10.0 mi Calm Calm - N/A   Clear
6:35 AM 23.0 °F 15.8 °F 17.6 °F 80% 30.42 in 10.0 mi SSW 5.8 mph - N/A   Clear
6:55 AM 21.2 °F 13.6 °F 17.6 °F 86% 30.42 in 10.0 mi SW 5.8 mph - N/A   Clear
7:15 AM 23.0 °F 15.8 °F 17.6 °F 80% 30.43 in 10.0 mi SSW 5.8 mph - N/A   Clear
7:35 AM 23.0 °F 18.4 °F 19.4 °F 86% 30.44 in 10.0 mi SE 3.5 mph - N/A   Clear
7:55 AM 26.6 °F 22.6 °F 23.0 °F 86% 30.45 in 10.0 mi SSE 3.5 mph - N/A   Clear
8:15 AM 32.0 °F 28.7 °F 24.8 °F 75% 30.45 in 10.0 mi SSE 3.5 mph - N/A   Clear
8:35 AM 35.6 °F - 24.8 °F 65% 30.46 in 10.0 mi Calm Calm - N/A   Clear
8:55 AM 39.2 °F 35.9 °F 24.8 °F 56% 30.47 in 10.0 mi ESE 4.6 mph - N/A   Clear
9:15 AM 39.2 °F 35.9 °F 23.0 °F 52% 30.47 in 10.0 mi ENE 4.6 mph - N/A   Clear
9:35 AM 41.0 °F 39.0 °F 19.4 °F 42% 30.47 in 10.0 mi East 3.5 mph - N/A   Clear
9:55 AM 44.6 °F 41.4 °F 17.6 °F 34% 30.48 in 10.0 mi NNW 5.8 mph - N/A   Clear
10:15 AM 44.6 °F 43.1 °F 17.6 °F 34% 30.48 in 10.0 mi NW 3.5 mph - N/A   Clear
10:35 AM 46.4 °F 45.2 °F 15.8 °F 29% 30.48 in 10.0 mi North 3.5 mph - N/A   Clear
10:55 AM 48.2 °F - 15.8 °F 27% 30.48 in 10.0 mi North 10.4 mph - N/A   Clear
11:15 AM 48.2 °F - 14.0 °F 25% 30.48 in 10.0 mi NNE 10.4 mph - N/A   Clear
11:35 AM 50.0 °F - 8.6 °F 19% 30.48 in 10.0 mi North 13.8 mph 17.3 mph N/A   Clear
11:55 AM 50.0 °F - 8.6 °F 19% 30.48 in 10.0 mi North 10.4 mph 16.1 mph N/A   Clear
12:15 PM 50.0 °F - 6.8 °F 17% 30.48 in 10.0 mi North 10.4 mph - N/A   Clear
12:35 PM 51.8 °F - 3.2 °F 14% 30.48 in 10.0 mi NNW 9.2 mph - N/A   Clear
12:55 PM 53.6 °F - 5.0 °F 14% 30.48 in 10.0 mi NE 9.2 mph 17.3 mph N/A   Clear
1:15 PM 53.6 °F - 6.8 °F 15% 30.47 in 10.0 mi NE 11.5 mph - N/A   Clear
1:35 PM 53.6 °F - 6.8 °F 15% 30.47 in 10.0 mi North 10.4 mph - N/A   Clear
1:55 PM 55.4 °F - 6.8 °F 14% 30.46 in 10.0 mi North 9.2 mph 21.9 mph N/A   Clear
2:15 PM 55.4 °F - 5.0 °F 13% 30.45 in 10.0 mi NNE 10.4 mph - N/A   Clear
2:35 PM 55.4 °F - 3.2 °F 12% 30.45 in 10.0 mi North 8.1 mph 17.3 mph N/A   Clear
2:55 PM 57.2 °F - 3.2 °F 11% 30.45 in 10.0 mi NNW 6.9 mph 16.1 mph N/A   Clear
3:15 PM 57.2 °F - 5.0 °F 12% 30.45 in 10.0 mi NNW 9.2 mph - N/A   Clear
3:35 PM 57.2 °F - 5.0 °F 12% 30.45 in 10.0 mi North 6.9 mph 16.1 mph N/A   Clear
3:55 PM 57.2 °F - 6.8 °F 13% 30.44 in 10.0 mi NNW 11.5 mph - N/A   Clear
4:15 PM 57.2 °F - 6.8 °F 13% 30.44 in 10.0 mi NNE 6.9 mph 17.3 mph N/A   Clear
4:35 PM 57.2 °F - 6.8 °F 13% 30.44 in 10.0 mi North 9.2 mph - N/A   Clear
4:55 PM 57.2 °F - 6.8 °F 13% 30.44 in 10.0 mi NNE 10.4 mph - N/A   Clear
5:15 PM 57.2 °F - 8.6 °F 14% 30.44 in 10.0 mi North 6.9 mph - N/A   Clear
5:35 PM 55.4 °F - 8.6 °F 15% 30.44 in 10.0 mi NNW 8.1 mph 17.3 mph N/A   Clear
5:55 PM 55.4 °F - 8.6 °F 15% 30.44 in 10.0 mi NNE 8.1 mph - N/A   Clear
6:15 PM 53.6 °F - 10.4 °F 18% 30.44 in 10.0 mi NNE 8.1 mph - N/A   Clear
6:35 PM 51.8 °F - 10.4 °F 19% 30.45 in 10.0 mi NE 4.6 mph - N/A   Clear
6:55 PM 48.2 °F - 12.2 °F 24% 30.45 in 10.0 mi NNE 5.8 mph - N/A   Clear
7:15 PM 42.8 °F - 10.4 °F 27% 30.45 in 10.0 mi Calm Calm - N/A   Clear
7:35 PM 39.2 °F - 12.2 °F 33% 30.46 in 10.0 mi Calm Calm - N/A   Clear
7:55 PM 37.4 °F 32.1 °F 12.2 °F 36% 30.47 in 10.0 mi NW 6.9 mph - N/A   Clear
8:15 PM 37.4 °F 34.9 °F 14.0 °F 38% 30.48 in 10.0 mi ENE 3.5 mph - N/A   Clear
8:35 PM 39.2 °F 35.9 °F 14.0 °F 36% 30.48 in 10.0 mi ESE 4.6 mph - N/A   Clear
8:55 PM 35.6 °F - 14.0 °F 41% 30.48 in 10.0 mi Calm Calm - N/A   Clear
9:15 PM 32.0 °F 25.6 °F 14.0 °F 48% 30.49 in 10.0 mi SSW 6.9 mph - N/A   Clear
9:35 PM 32.0 °F 26.4 °F 15.8 °F 51% 30.50 in 10.0 mi South 5.8 mph - N/A   Clear
9:55 PM 30.2 °F 24.3 °F 14.0 °F 51% 30.51 in 10.0 mi SSW 5.8 mph - N/A   Clear
10:15 PM 30.2 °F 25.4 °F 14.0 °F 51% 30.51 in 10.0 mi SSW 4.6 mph - N/A   Clear
10:35 PM 28.4 °F 23.3 °F 14.0 °F 55% 30.51 in 10.0 mi SE 4.6 mph - N/A   Clear
10:55 PM 30.2 °F 24.3 °F 14.0 °F 51% 30.52 in 10.0 mi SSW 5.8 mph - N/A   Clear
11:15 PM 32.0 °F 25.6 °F 15.8 °F 51% 30.52 in 10.0 mi SSW 6.9 mph - N/A   Clear
11:35 PM 28.4 °F 21.2 °F 15.8 °F 59% 30.52 in 10.0 mi South 6.9 mph - N/A   Clear
11:55 PM 26.6 °F 20.0 °F 15.8 °F 64% 30.52 in 10.0 mi SSE 5.8 mph - N/A   Clear